Location: Girdwood
(60.9430°N, 149.1660°W)
Time: 15:04:55
(UTC-09:00)

Iridium 86 - Visible Passes

Search period start: 06 March 2015 00:00
Search period end: 16 March 2015 01:00
Orbit: 776 x 779 km, 86.4° (Epoch: 06 March)

Date Brightness Start Highest point End Pass type
(mag) Time Alt. Az. Time Alt. Az. Time Alt. Az.
06 Mar 6.9 00:34:25 10° N 00:37:34 35° NNW 00:37:34 35° NNW visible
06 Mar 7.9 02:16:24 10° NNW 02:18:03 14° NW 02:18:03 14° NW visible
06 Mar 7.1 22:20:22 10° N 22:23:47 23° NE 22:23:47 23° NE visible
07 Mar 6.6 00:00:49 10° N 00:04:16 42° N 00:04:16 42° N visible
07 Mar 7.6 01:42:15 10° NNW 01:44:44 19° NW 01:44:44 19° NW visible
07 Mar 7.3 21:47:08 10° NNE 21:50:28 18° NE 21:50:28 18° NE visible
07 Mar 6.4 23:27:16 10° N 23:30:57 44° NNE 23:30:57 44° NNE visible
08 Mar 7.2 01:08:22 10° NNW 01:11:26 27° NW 01:11:26 27° NW visible
08 Mar 7.6 22:14:13 10° NNE 22:16:28 13° NE 22:17:10 13° NE visible
08 Mar 6.5 23:53:46 10° N 23:57:39 38° NE 23:57:39 38° NE visible
09 Mar 6.8 01:34:37 10° NNW 01:38:08 36° NW 01:38:08 36° NW visible
09 Mar 8.0 03:17:13 10° NW 03:18:37 12° WNW 03:18:37 12° WNW visible
09 Mar 6.7 23:20:21 10° N 23:24:21 29° NE 23:24:21 29° NE visible
10 Mar 6.3 01:00:58 10° N 01:04:50 48° NNW 01:04:50 48° NNW visible
10 Mar 7.7 02:42:41 10° NNW 02:45:19 17° WNW 02:45:19 17° WNW visible
10 Mar 7.0 22:47:02 10° N 22:50:59 22° ENE 22:51:04 22° ENE visible
11 Mar 6.0 00:27:22 10° N 00:31:33 57° N 00:31:33 57° N visible
11 Mar 7.3 02:08:40 10° NNW 02:12:01 24° WNW 02:12:01 24° WNW visible
11 Mar 7.3 22:13:53 10° NNE 22:16:56 16° NE 22:17:47 15° ENE visible
11 Mar 6.0 23:53:50 10° N 23:58:16 50° NE 23:58:16 50° NE visible
12 Mar 6.8 01:34:50 10° NNW 01:38:44 34° WNW 01:38:44 34° WNW visible
12 Mar 7.6 21:41:16 10° NNE 21:42:46 11° NE 21:44:26 10° ENE visible
12 Mar 6.3 23:20:22 10° N 23:24:58 37° ENE 23:24:58 37° ENE visible
13 Mar 6.2 01:01:08 10° NNW 01:05:27 49° NW 01:05:27 49° NW visible
13 Mar 7.8 02:43:16 10° NW 02:45:56 14° WNW 02:45:56 14° WNW visible
13 Mar 6.7 22:46:59 10° N 22:51:21 26° ENE 22:51:42 26° ENE visible
14 Mar 5.7 00:27:29 10° N 00:32:11 70° NNW 00:32:11 70° NNW visible
14 Mar 7.4 02:09:01 10° NNW 02:12:40 20° WNW 02:12:40 20° WNW visible
14 Mar 7.1 22:13:43 10° NNE 22:17:22 19° NE 22:18:26 18° ENE visible
14 Mar 5.5 23:53:55 10° N 23:58:55 68° ENE 23:58:55 68° ENE visible
15 Mar 7.0 01:35:06 10° NNW 01:39:24 29° WNW 01:39:24 29° WNW visible
15 Mar 7.4 21:40:42 10° NNE 21:43:15 14° NE 21:45:10 12° ENE visible
15 Mar 5.9 23:20:24 10° N 23:25:28 47° ENE 23:25:39 46° E visible
